TimeCET,TemperatureF,Dew PointF,Humidity,Sea Level PressureIn,VisibilityMPH,Wind Direction,Wind SpeedMPH,Gust SpeedMPH,PrecipitationIn,Events,Conditions,WindDirDegrees,DateUTC
12:00 AM,60.8,59.0,94,30.06,6.2,North,2.3,-,N/A,,Partly Cloudy,10,2011-10-31 23:00:00
12:30 AM,60.8,59.0,94,30.06,6.2,North,2.3,-,N/A,,Partly Cloudy,10,2011-10-31 23:30:00
1:00 AM,59,58,95,30.07,12,Calm,Calm,,,,Scattered Clouds,,2011-11-01 00:00:00
1:00 AM,59.0,57.2,94,30.06,6.2,ENE,2.3,-,N/A,,Partly Cloudy,70,2011-11-01 00:00:00
1:30 AM,59.0,57.2,94,30.06,6.2,Variable,1.2,-,N/A,,Partly Cloudy,0,2011-11-01 00:30:00
2:00 AM,57.2,57.2,100,30.06,6.2,Calm,Calm,-,N/A,,Partly Cloudy,0,2011-11-01 01:00:00
2:30 AM,57.2,57.2,100,30.06,6.2,Calm,Calm,-,N/A,,Partly Cloudy,0,2011-11-01 01:30:00
3:00 AM,57.2,57.2,100,30.04,6.2,East,1.2,-,N/A,,Partly Cloudy,100,2011-11-01 02:00:00
3:30 AM,55.4,55.4,100,30.04,6.2,Calm,Calm,-,N/A,,Partly Cloudy,0,2011-11-01 02:30:00
4:00 AM,55.4,55.4,100,30.04,6.2,Calm,Calm,-,N/A,,Partly Cloudy,0,2011-11-01 03:00:00
5:00 AM,55.4,55.4,100,30.04,6.2,Calm,Calm,-,N/A,,Partly Cloudy,0,2011-11-01 04:00:00
5:30 AM,55.4,53.6,94,30.04,6.2,NE,1.2,-,N/A,,Partly Cloudy,50,2011-11-01 04:30:00
6:00 AM,55.4,55.4,100,30.04,6.2,North,1.2,-,N/A,,Partly Cloudy,10,2011-11-01 05:00:00
6:30 AM,55.4,53.6,94,30.04,6.2,Calm,Calm,-,N/A,,Scattered Clouds,0,2011-11-01 05:30:00
7:00 AM,54,54,100,30.05,7,Calm,Calm,,,,Partly Cloudy,,2011-11-01 06:00:00
7:00 AM,53.6,53.6,100,30.04,6.2,Calm,Calm,-,N/A,,Scattered Clouds,0,2011-11-01 06:00:00
7:30 AM,55.4,55.4,100,30.06,6.2,Variable,2.3,-,N/A,,Scattered Clouds,0,2011-11-01 06:30:00
8:00 AM,59.0,57.2,94,30.06,6.2,Calm,Calm,-,N/A,,Scattered Clouds,0,2011-11-01 07:00:00
8:30 AM,59.0,59.0,100,30.06,6.2,Calm,Calm,-,N/A,,Scattered Clouds,0,2011-11-01 07:30:00
9:00 AM,60.8,60.8,100,30.06,6.2,Calm,Calm,-,N/A,,Mostly Cloudy,0,2011-11-01 08:00:00
9:30 AM,62.6,62.6,100,30.06,6.2,Variable,1.2,-,N/A,,Mostly Cloudy,0,2011-11-01 08:30:00
10:00 AM,66.2,64.4,94,30.09,5.0,Calm,Calm,-,N/A,,Mostly Cloudy,0,2011-11-01 09:00:00
10:30 AM,69.8,64.4,83,30.06,5.0,Calm,Calm,-,N/A,,Partly Cloudy,0,2011-11-01 09:30:00
11:00 AM,71.6,62.6,73,30.06,6.2,South,1.2,-,N/A,,Partly Cloudy,170,2011-11-01 10:00:00
11:30 AM,71.6,62.6,73,30.06,6.2,SSW,4.6,-,N/A,,Scattered Clouds,210,2011-11-01 10:30:00
12:00 PM,71.6,62.6,73,30.06,6.2,SW,6.9,-,N/A,,Scattered Clouds,220,2011-11-01 11:00:00
12:30 PM,71.6,62.6,73,30.06,6.2,SW,6.9,-,N/A,,Partly Cloudy,220,2011-11-01 11:30:00
1:00 PM,72,61,61,30.06,12,SW,6.9,,,,Scattered Clouds,220,2011-11-01 12:00:00
1:00 PM,71.6,62.6,73,30.06,6.2,SW,8.1,-,N/A,,Partly Cloudy,220,2011-11-01 12:00:00
1:30 PM,71.6,59.0,64,30.06,6.2,SW,8.1,-,N/A,,Partly Cloudy,220,2011-11-01 12:30:00
2:00 PM,71.6,62.6,73,30.04,6.2,SW,8.1,-,N/A,,Partly Cloudy,220,2011-11-01 13:00:00
2:30 PM,73.4,60.8,65,30.04,6.2,SW,8.1,-,N/A,,Partly Cloudy,220,2011-11-01 13:30:00
3:00 PM,71.6,60.8,69,30.04,6.2,SW,9.2,-,N/A,,Partly Cloudy,220,2011-11-01 14:00:00
3:30 PM,71.6,60.8,69,30.04,6.2,SSW,8.1,-,N/A,,Partly Cloudy,210,2011-11-01 14:30:00
4:00 PM,71.6,60.8,69,30.04,6.2,SSW,8.1,-,N/A,,Partly Cloudy,210,2011-11-01 15:00:00
4:30 PM,71.6,60.8,69,30.04,6.2,SSW,8.1,-,N/A,,Partly Cloudy,210,2011-11-01 15:30:00
5:00 PM,69.8,60.8,73,30.04,6.2,SSW,6.9,-,N/A,,Partly Cloudy,200,2011-11-01 16:00:00
5:30 PM,69.8,60.8,73,30.04,6.2,SSW,3.5,-,N/A,,Partly Cloudy,200,2011-11-01 16:30:00
6:00 PM,69.8,60.8,73,30.04,6.2,SSW,4.6,-,N/A,,Partly Cloudy,200,2011-11-01 17:00:00
6:30 PM,69.8,60.8,73,30.04,6.2,SSE,2.3,-,N/A,,Partly Cloudy,160,2011-11-01 17:30:00
7:00 PM,67,61,75,30.07,12,SSE,3.5,,,,Mostly Cloudy,150,2011-11-01 18:00:00
7:00 PM,66.2,60.8,83,30.06,6.2,SE,3.5,-,N/A,,Mostly Cloudy,140,2011-11-01 18:00:00
7:30 PM,66.2,60.8,83,30.06,6.2,SE,1.2,-,N/A,,Scattered Clouds,140,2011-11-01 18:30:00
8:00 PM,64.4,60.8,88,30.06,6.2,SE,2.3,-,N/A,,Scattered Clouds,140,2011-11-01 19:00:00
8:30 PM,64.4,60.8,88,30.06,6.2,Calm,Calm,-,N/A,,Scattered Clouds,0,2011-11-01 19:30:00
9:00 PM,64.4,59.0,83,30.06,6.2,SE,1.2,-,N/A,,Scattered Clouds,140,2011-11-01 20:00:00
9:30 PM,62.6,59.0,88,30.06,6.2,Calm,Calm,-,N/A,,Scattered Clouds,0,2011-11-01 20:30:00
10:00 PM,62.6,59.0,88,30.09,6.2,Calm,Calm,-,N/A,,Scattered Clouds,0,2011-11-01 21:00:00
10:30 PM,60.8,59.0,94,30.09,6.2,Calm,Calm,-,N/A,,Scattered Clouds,0,2011-11-01 21:30:00
11:00 PM,60.8,59.0,94,30.09,6.2,Calm,Calm,-,N/A,,Partly Cloudy,0,2011-11-01 22:00:00
11:30 PM,59.0,59.0,100,30.06,6.2,Variable,1.2,-,N/A,,Partly Cloudy,0,2011-11-01 22:30:00